{"data":{"norad_id":66368,"epoch":"2026-05-24T22:51:38.180736Z","epoch_age_seconds":79386,"freshness":"FRESH","line1":"1 66368U 25254W   26144.95252524  .00026494  00000+0  90324-3 0  9993","line2":"2 66368  53.1564 235.9184 0000926  70.5143 289.5958 15.30207971 30682","mean_motion":15.30207971,"eccentricity":9.26e-5,"inclination_deg":53.1564,"raan_deg":235.9184,"arg_perigee_deg":70.5143,"mean_anomaly_deg":289.5958,"bstar":0.00090324,"rev_number":3068,"period_min":94.104855502677,"perigee_km":474.55665135566,"apogee_km":475.82588775118,"semimajor_km":6853.3282695534,"source":"CELESTRAK","updated_at":"2026-05-25T13:38:21.197854Z"}}